Theta_e
299 298 296 295 295 295 294 294 294 295 295 295 295 295 295 295 296 296 297 297 297 297 298 299 299 300 300 302 303 304 304 304 302 304 306 301 300 299 299 296 295 296 297
292 292 291 291 291 291 291 291 292 291 292 292 292 292 292 292 292 292 292 292 292 292 293 294 294 294 295 297 296 297 299 301 300 297 301 301 300 298 295 293 294 293 293
289 289 288 288 288 288 288 289 289 289 289 289 289 289 288 289 289 290 290 290 290 290 290 290 290 291 290 291 291 292 293 294 295 294 294 298 297 295 293 293 293 293 291
287 287 285 285 285 285 286 286 286 286 286 286 286 286 286 287 288 288 288 288 287 288 288 288 288 288 287 287 288 288 289 289 290 291 291 291 294 292 290 290 292 292 291
284 283 283 283 284 284 283 283 283 283 284 284 283 284 284 285 287 287 286 286 285 285 286 286 286 285 285 287 287 287 287 286 287 287 287 289 290 290 288 290 288 291 291
282 281 282 282 282 282 281 281 282 281 282 282 282 282 281 282 286 287 286 285 284 283 283 284 284 284 284 285 286 287 287 286 285 285 285 285 286 288 289 288 287 286 286
280 280 280 280 280 280 280 280 280 280 280 280 280 280 280 281 285 286 286 284 283 283 283 283 283 283 283 284 285 286 285 286 287 286 284 284 284 286 286 285 285 285 285
279 279 279 279 278 279 278 278 278 278 278 279 279 279 279 280 284 285 285 283 282 282 282 282 282 282 283 284 284 283 284 284 284 284 285 285 285 286 286 286 285 285 285
278 277 277 278 277 277 277 277 277 277 277 277 278 278 277 278 282 284 284 282 281 281 282 282 282 282 283 284 283 282 282 283 285 286 287 287 287 287 286 284 282 281 280
276 276 276 276 276 275 275 276 276 276 276 277 276 277 276 277 280 283 284 282 280 281 281 281 282 282 284 285 283 282 280 281 282 283 284 285 285 285 285 284 282 279 279
276 275 275 274 275 275 275 275 275 275 274 274 274 275 276 277 278 282 283 281 281 280 280 280 281 282 284 284 285 282 281 283 283 282 281 282 281 281 281 282 282 281 279
274 273 272 272 274 275 273 274 273 273 272 272 273 274 275 276 278 280 281 282 282 279 279 280 280 283 283 283 282 283 283 283 281 280 279 278 279 279 280 280 280 280 280
272 270 270 271 273 273 272 272 271 271 271 271 272 273 274 276 276 279 280 281 281 279 280 280 281 281 281 280 280 280 278 278 278 277 276 277 278 279 279 277 276 276 276
269 269 270 270 270 270 271 271 271 270 270 272 272 273 274 275 276 277 278 278 278 278 279 278 278 277 276 276 275 276 276 276 275 275 275 276 277 276 275 276 275 276 274
269 268 269 269 268 269 269 270 271 272 272 271 272 274 273 272 275 278 278 277 277 278 274 272 271 271 271 271 272 272 273 273 272 274 273 273 274 275 276 276 274 274 272
268 268 267 267 267 267 267 268 272 274 276 276 277 276 275 276 277 277 277 278 278 276 269 267 267 268 268 269 269 269 269 270 270 269 270 270 271 272 274 275 275 273 272
268 268 267 267 267 266 266 266 266 268 272 274 274 274 274 274 275 275 276 276 273 271 265 265 265 266 266 267 267 267 267 268 268 268 268 268 268 270 271 273 273 273 272
265 264 266 266 266 265 264 264 264 264 263 264 268 270 272 272 273 274 274 269 264 264 263 263 263 264 265 265 265 265 266 266 266 266 266 266 267 268 269 271 272 272 272
264 263 263 263 262 262 262 262 261 260 260 259 260 265 266 269 271 270 269 263 261 261 262 262 263 263 264 264 264 264 264 264 265 265 265 265 266 266 266 268 269 271 271
262 262 261 261 260 259 260 260 259 258 259 258 258 260 261 261 262 261 261 260 259 259 260 261 262 262 262 263 263 263 263 263 263 263 263 264 265 265 265 265 266 267 270
261 261 260 258 258 258 258 258 258 257 257 257 257 260 269 259 259 259 259 259 259 260 260 261 261 262 262 262 262 262 262 262 262 262 262 263 263 263 264 264 265 266 268
261 260 258 258 257 257 256 257 257 257 257 257 257 258 265 258 257 257 257 258 259 259 260 260 261 261 262 262 262 262 261 261 261 261 261 261 261 262 262 263 263 265 266
260 258 258 257 258 257 257 256 257 258 258 257 257 256 256 256 255 255 256 257 257 258 259 259 260 260 261 262 262 262 260 260 261 261 260 260 260 261 261 261 262 263 264
260 260 259 258 258 258 259 258 258 258 258 257 256 256 255 254 255 256 256 257 257 258 258 258 259 259 260 260 261 261 261 261 261 260 260 260 259 261 261 262 262 263 264
258 258 258 258 258 259 260 259 259 258 257 256 255 255 254 254 254 254 255 255 256 257 257 258 259 259 258 258 258 258 259 258 259 259 260 261 261 261 261 261 263 263 264
258 259 260 259 259 259 259 259 258 257 256 255 255 253 252 252 253 254 254 254 254 255 256 257 257 257 257 257 258 258 259 262 261 262 262 263 263 263 263 263 263 263 264
Wind_Speed
8 10 9 10 10 7 7 5 7 7 6 6 7 8 6 7 8 7 6 6 6 7 7 8 8 8 6 5 5 4 4 4 8 7 3 1 2 4 4 3 5 6 6
9 9 10 10 9 9 7 7 8 7 8 6 8 8 7 8 7 7 7 7 7 8 8 7 6 6 7 6 6 6 6 6 7 12 8 4 4 3 4 5 5 4 5
8 10 12 9 9 8 7 6 7 8 6 8 8 8 8 7 7 6 6 6 7 6 7 7 8 8 7 6 6 6 5 6 7 8 10 7 4 2 3 5 5 6 5
9 10 9 9 8 6 5 5 7 6 8 8 8 7 7 6 7 7 7 7 7 7 6 6 7 7 8 8 6 6 6 6 6 6 7 8 6 2 3 6 7 3 5
8 8 7 7 7 4 4 4 7 8 7 6 6 7 7 7 6 6 5 6 7 6 5 5 5 5 7 8 6 7 7 6 7 7 7 7 7 6 7 4 7 10 7
8 10 5 6 5 4 5 6 7 7 7 7 7 7 7 4 10 10 7 4 5 5 6 5 5 4 7 9 9 10 9 8 9 7 7 9 10 9 8 7 10 10 9
8 6 4 5 6 5 5 7 8 7 6 6 5 5 5 4 11 12 12 5 6 6 7 7 7 5 7 8 9 11 9 11 11 10 11 11 11 10 10 12 11 10 11
6 5 4 5 7 5 6 7 6 4 5 4 4 6 6 6 14 14 13 6 6 6 7 7 8 10 10 12 13 11 10 8 7 6 8 11 11 10 10 11 12 13 10
6 5 5 5 5 5 6 5 4 4 4 5 6 7 9 8 12 11 9 5 6 6 5 4 6 8 13 17 12 13 14 11 9 15 17 19 19 18 15 9 8 9 11
5 5 5 4 5 5 3 4 2 3 6 6 7 6 4 4 8 11 10 5 8 6 6 5 6 9 17 19 13 11 13 13 12 13 10 12 13 12 17 10 7 9 9
5 5 4 3 4 4 5 5 6 6 5 4 3 3 3 4 7 11 12 5 6 7 6 7 6 17 20 22 21 10 12 15 13 9 9 8 8 9 8 8 9 8 8
5 5 5 6 5 5 5 2 3 3 3 3 4 3 2 3 6 7 12 11 13 6 7 7 8 21 23 23 17 20 22 18 8 8 9 9 8 8 8 8 10 9 8
5 5 4 4 3 3 2 2 2 3 2 2 3 3 2 1 2 9 11 14 13 8 6 12 19 19 19 14 18 21 15 8 9 9 10 10 8 9 10 8 7 9 9
5 4 3 2 1 1 1 1 0 1 1 0 1 3 4 3 4 5 5 6 7 7 10 6 11 13 14 12 8 9 7 8 8 9 10 10 9 8 8 7 8 8 8
4 3 3 2 2 1 2 2 2 2 3 3 2 2 3 5 5 11 10 7 6 9 7 5 6 7 7 7 7 7 7 8 8 8 10 12 11 10 9 7 7 8 8
4 3 3 3 3 2 2 2 4 4 3 4 2 2 1 7 11 14 15 15 15 18 4 5 7 7 7 8 8 9 9 9 8 10 9 10 11 12 12 9 8 8 10
5 5 4 4 4 3 3 2 2 2 3 3 3 6 7 7 12 13 13 15 16 11 3 5 6 7 7 7 7 8 9 8 10 9 10 11 11 12 14 12 10 10 9
5 5 5 4 3 3 3 3 1 1 1 2 5 7 5 11 12 10 13 10 5 5 2 4 6 6 7 7 7 8 9 9 8 9 9 10 11 12 12 13 10 11 10
6 4 4 3 3 3 3 2 1 1 2 1 2 4 4 10 7 9 10 1 3 5 5 5 5 6 7 7 7 7 8 8 9 9 8 9 10 10 11 11 13 15 13
5 6 6 5 4 4 3 3 2 2 2 2 3 3 4 2 4 4 2 2 3 3 4 5 6 6 7 7 7 8 8 9 9 8 9 9 9 10 11 12 12 13 12
5 5 7 4 5 4 4 4 3 2 2 2 2 3 9 3 5 5 6 6 5 5 6 6 7 7 7 7 8 8 8 9 9 9 9 9 10 11 10 11 12 12 13
6 6 5 5 4 4 3 3 3 2 2 2 2 2 10 2 3 4 5 6 6 6 6 7 7 7 7 8 9 9 9 10 10 10 10 10 11 11 10 11 11 11 11
6 6 5 3 4 5 3 3 2 1 1 2 3 3 3 3 3 4 5 5 6 6 6 6 7 8 8 8 8 9 10 11 10 10 11 12 11 11 10 11 11 11 11
6 6 6 5 4 4 4 3 3 2 1 1 2 3 4 4 5 6 6 6 6 7 6 6 7 10 10 10 9 9 10 11 10 11 14 12 11 13 11 11 11 13 12
6 6 6 6 5 5 5 4 2 1 1 2 3 3 4 4 5 5 5 6 7 7 8 8 8 11 12 14 15 17 16 18 15 15 11 14 15 17 14 12 12 12 13
6 6 5 5 4 4 3 3 2 2 2 2 3 3 3 4 5 6 6 6 6 7 10 9 11 14 16 14 16 18 18 19 16 18 14 12 12 11 10 12 15 12 12
Wind_Direction
94 93 105 111 98 99 101 88 81 73 58 57 65 62 47 48 36 34 22 13 16 9 8 3 356 353 349 353 349 346 336 320 297 309 325 348 274 313 316 297 290 296 289
82 88 93 89 84 68 71 82 69 65 52 44 59 60 48 45 38 37 24 13 14 5 360 356 351 343 345 351 348 333 323 315 304 297 303 299 282 282 279 289 284 276 273
92 98 76 66 77 84 64 73 75 77 66 53 53 51 39 42 40 29 23 12 13 4 355 354 344 350 348 347 338 332 326 321 312 300 302 308 301 288 301 276 284 280 264
90 78 99 103 83 83 89 64 70 63 59 54 45 46 40 36 36 21 15 8 0 358 355 348 345 350 344 339 329 325 321 306 295 288 293 299 304 298 289 295 291 269 280
94 106 82 82 75 70 81 82 70 60 57 55 50 39 31 38 23 19 19 4 356 349 338 341 341 336 328 326 325 325 317 311 307 301 291 295 293 308 301 311 291 299 284
108 89 84 94 116 109 79 71 70 58 51 49 44 40 35 29 18 20 16 341 335 341 335 329 322 307 332 335 331 322 316 317 311 307 310 302 301 304 308 300 302 307 305
88 99 132 128 102 81 80 72 61 58 52 47 46 43 38 13 12 10 2 348 346 353 349 343 342 345 343 338 330 326 319 318 309 300 295 289 296 303 306 303 298 289 284
116 133 128 97 81 76 66 64 62 51 50 33 33 24 27 22 12 4 358 342 345 351 348 339 340 340 346 344 338 329 323 323 297 292 278 281 285 287 286 292 294 292 286
131 107 80 77 89 75 65 59 56 42 40 30 26 20 18 9 4 359 1 352 349 345 327 331 347 334 334 338 330 325 322 314 307 306 301 298 298 300 302 305 298 295 292
118 115 92 79 79 80 88 91 78 54 33 22 21 17 342 353 358 4 9 1 349 340 339 322 320 336 329 327 326 320 315 311 308 310 310 305 298 288 286 270 272 281 290
104 98 99 109 116 83 54 42 30 32 22 16 18 355 355 359 2 5 5 354 342 341 330 327 329 327 322 326 324 321 307 310 308 307 296 293 294 293 289 279 275 269 267
127 110 69 49 42 49 58 43 46 49 41 10 355 11 356 330 346 355 356 349 350 336 327 320 315 322 326 326 328 319 320 325 309 304 304 302 296 292 288 283 278 270 259
86 81 86 72 68 62 80 43 51 54 54 24 10 334 312 270 285 351 340 345 344 341 322 310 322 323 324 322 323 327 336 325 319 317 315 311 307 301 299 289 280 273 269
119 113 99 93 95 29 20 14 118 237 92 285 313 308 316 341 355 345 334 326 322 319 310 338 333 327 320 320 322 328 323 324 323 314 311 308 304 302 293 290 291 289 276
140 149 173 181 199 210 259 229 240 266 211 232 251 279 335 345 319 322 336 331 326 334 11 342 332 338 336 335 332 328 328 328 321 329 326 317 309 304 301 293 277 285 271
159 177 190 182 186 193 219 296 281 279 272 310 333 26 345 302 324 336 337 335 355 350 4 347 338 338 336 334 333 330 330 320 339 323 319 318 315 310 304 303 294 269 279
179 180 176 175 185 181 196 193 220 291 3 47 72 339 322 344 339 337 338 357 351 0 356 339 328 325 321 319 318 319 318 323 317 319 316 317 312 309 310 301 299 296 279
180 174 176 182 179 167 199 210 197 63 5 326 331 321 346 341 337 345 358 1 342 357 305 306 308 310 314 312 314 314 312 313 313 310 310 309 308 307 315 313 298 299 293
176 181 170 157 161 176 187 177 177 206 252 239 306 309 312 327 342 7 5 1 307 310 313 313 307 304 302 302 302 303 303 304 307 306 305 304 305 313 307 309 313 307 299
174 158 157 163 167 177 179 180 177 212 269 287 307 308 302 342 1 350 340 292 289 281 286 288 301 297 297 300 304 305 306 307 307 307 305 304 303 305 306 307 307 307 303
162 159 159 156 173 176 167 178 185 194 239 269 277 290 325 49 338 329 320 317 302 307 310 307 303 300 301 301 301 302 302 302 301 300 300 301 303 299 298 297 298 301 303
158 163 163 169 157 158 169 168 174 195 240 297 310 301 345 351 305 285 289 294 298 292 287 289 296 297 297 298 299 298 299 300 298 298 298 299 297 293 293 294 297 298 300
149 148 153 148 147 147 144 154 160 177 241 284 308 310 306 288 272 269 272 276 277 283 288 280 287 292 294 292 291 291 293 294 294 296 296 293 291 291 292 291 294 297 298
143 144 144 144 147 147 147 154 167 190 243 297 304 307 304 299 302 305 299 299 295 293 282 277 281 281 289 288 289 285 285 286 288 286 286 285 284 287 285 288 290 290 290
130 135 140 147 150 155 157 156 156 158 263 284 294 299 299 292 292 294 293 291 293 292 292 291 289 287 286 289 286 286 283 283 278 276 275 276 280 280 279 278 280 284 282
127 132 135 136 142 147 148 146 153 184 239 273 278 269 271 297 297 293 294 286 285 289 295 289 286 286 289 288 285 283 282 283 285 281 275 276 282 287 289 288 288 286 283